Weather in Baskakovo

Russia / Smolensk Oblast     55°32′56″N   34°45′13″E
temp.,
°C
wind,
m/s
gust,
m/s
humid.,
%
clouds,
%
prec.,
mm/h
press.,
hPa
HPBL,
m
5 march, fri
fri500:00−7nw348962 0.0 100469
03:00−8wnw349131 0.0 100653
06:00−8wnw339663 0.1 100857
09:00−6wnw489574 0.1 1009373
12:00−5wnw458636 0.0 1010618
15:00−3w358052 0.1 1011780
18:00−6wsw22852 0.0 101221
21:00−7wsw119541 0.3 101421
6 march, sat
sat600:00−6n2493100 1.7 1015122
03:00−9nnw3591100 1.8 1017101
06:00−12nw349361 0.0 101739
09:00−11wnw359430 0.0 1018117
12:00−6wnw468930 0.0 1018615
15:00−5wnw468065 0.2 10171025
18:00−8w348558 0.1 101648
21:00−10wsw478634 0.1 1016102
7 march, sun
sun700:00−7sw7148390 0.0 1012469
03:00−6sw8168195 0.0 1008618
06:00−6sw101786100 0.0 1003859
09:00−4sw122092100 0.8 9971115
12:00−3wnw91574100 1.3 9951439
15:00−5wnw9166883 1.3 9982012
18:00−6wsw6157576 0.1 999582
21:00−6wsw8178481 0.1 997862
8 march, mon
mon800:00−6w9168899 0.3 995968
03:00−8wnw6138199 1.1 997600
06:00−10nw81584100 0.1 1000726
09:00−11nw71387100 0.1 1003816
12:00−8wnw7118175 0.0 1005857
15:00−7wnw7118274 0.1 10071207
18:00−8nw4993100 0.2 1008398
21:00−12nw359298 0.3 101185
9 march, tue
tue900:00−14nnw3696100 0.0 1013121
03:00−15nnw369798 0.1 1014146
06:00−17nnw479799 0.1 1016179
09:00−18nnw479696 0.1 1019305
12:00−14nnw468990 0.0 1020438
15:00−12nw478380 0.0 1020636
18:00−14nw238610 0.0 102121
21:00−15w238823 0.0 102220